Blythe, CA

4:51 PM PDT on April 21, 2018 (GMT -0700)
Blythe

Weather History for KBLH - July, 2014

Change the Weather History Date:

Wednesday, July 16, 2014

  Actual Average Record
Temperature  
Mean Temperature 96 °F -  
Max Temperature 109 °F 106 °F 118 °F (1998)
Min Temperature 82 °F 80 °F 70 °F (1993)
Cooling Degree Days 30    
Growing Degree Days 46 (Base 50)    
Moisture  
Dew Point 47 °F    
Average Humidity 20    
Maximum Humidity 30    
Minimum Humidity 9    
Precipitation  
Precipitation 0.00 in - - ()
Sea Level Pressure  
Sea Level Pressure 29.78 in    
Wind  
Wind Speed 11 mph (SSW)    
Max Wind Speed 21 mph    
Max Gust Speed 30 mph    
Visibility 10 miles    
Events      
Averages and records for this station are not official NWS values.
T = Trace of Precipitation, MM = Missing Value Source: NWS Daily Summary

Daily Weather History Graph

Daily Weather History Graph

Search for Another Location

Airport or City:

Astronomy

Jul. 16, 2014 Rise Set
Actual Time 5:40 AM PDT 7:49 PM PDT
Civil Twilight 5:12 AM PDT 8:17 PM PDT
Nautical Twilight 4:37 AM PDT 8:51 PM PDT
Astronomical Twilight 4:00 AM PDT 9:29 PM PDT
Moon 10:54 PM PDT (7/16) 10:32 AM PDT (7/16)
Length of Visible Light 15h 05m
Length of Day
14h 08m
Waning Gibbous, 75% of the Moon is Illuminated
Jul 16
Waning Gibbous
Jul 18
Last Quarter
Jul 26
New
Aug 3
First Quarter
Aug 10
Full

Hourly Weather History & Observations

Time (PDT) Temp. Heat Index Dew Point Humidity Pressure Visibility Wind Dir Wind Speed Gust Speed Precip Events Conditions
12:52 AM 91.0 °F - 46.9 °F 22% 29.82 in 10.0 mi SW 9.2 mph - N/A   Clear
1:52 AM 91.0 °F - 46.0 °F 21% 29.81 in 10.0 mi WSW 10.4 mph - N/A   Clear
2:52 AM 89.1 °F - 42.1 °F 19% 29.80 in 10.0 mi South 8.1 mph - N/A   Clear
3:52 AM 84.9 °F - 44.1 °F 24% 29.80 in 10.0 mi South 10.4 mph - N/A   Clear
4:52 AM 82.9 °F - 44.1 °F 25% 29.80 in 10.0 mi South 10.4 mph - N/A   Clear
5:52 AM 82.9 °F - 46.0 °F 27% 29.81 in 10.0 mi South 6.9 mph - N/A   Clear
6:52 AM 84.9 °F - 46.9 °F 27% 29.82 in 10.0 mi South 9.2 mph - N/A   Clear
7:52 AM 87.1 °F - 52.0 °F 30% 29.84 in 10.0 mi South 10.4 mph - N/A   Clear
8:52 AM 91.0 °F 88.9 °F 55.0 °F 29% 29.85 in 10.0 mi South 12.7 mph - N/A   Clear
9:52 AM 95.0 °F 93.0 °F 55.0 °F 26% 29.85 in 10.0 mi South 10.4 mph - N/A   Clear
10:52 AM 98.1 °F 96.4 °F 55.0 °F 24% 29.83 in 10.0 mi South 6.9 mph - N/A   Clear
11:52 AM 102.0 °F 100.6 °F 55.0 °F 21% 29.81 in 10.0 mi South 9.2 mph - N/A   Clear
12:52 PM 106.0 °F - 52.0 °F 17% 29.78 in 10.0 mi SE 15.0 mph 20.7 mph N/A   Clear
1:52 PM 108.0 °F - 50.0 °F 15% 29.76 in 10.0 mi South 16.1 mph 29.9 mph N/A   Clear
3:52 PM 109.0 °F - 39.9 °F 10% 29.72 in 10.0 mi SW 19.6 mph 26.5 mph N/A   Clear
4:52 PM 109.0 °F - 37.9 °F 9% 29.70 in 10.0 mi SW 18.4 mph - N/A   Clear
5:52 PM 107.1 °F - 36.0 °F 9% 29.69 in 10.0 mi SW 17.3 mph - N/A   Clear
7:52 PM 100.9 °F - 36.0 °F 11% 29.70 in 9.0 mi SW 13.8 mph - N/A   Clear
8:52 PM 98.1 °F - 44.1 °F 16% 29.72 in 7.0 mi SW 20.7 mph - N/A   Partly Cloudy
9:52 PM 95.0 °F - 44.1 °F 17% 29.73 in 7.0 mi WSW 16.1 mph - N/A   Clear
10:52 PM 93.0 °F - 46.9 °F 20% 29.74 in 8.0 mi SW 5.8 mph - N/A   Clear
11:52 PM 86.0 °F - 48.9 °F 28% 29.74 in 9.0 mi South 15.0 mph - N/A   Clear